When you browse on this site, cookies collect data to enhance your experience and personalize the content and advertising you see.
Visit our Privacy Policy to learn more. By continuing to use the site, you agree to this use of cookies and data.

Hourly Weather Townsville

Today, 10 August, Monday

Time Temperature Precipitation Wind Pressure Humidity
00:00 +18°C° 0 mm 2 mps 755 mmHg 47%
01:00 +17°C° 0 mm 3 mps 755 mmHg 45%
02:00 +17°C° 0 mm 3 mps 755 mmHg 43%
03:00 +16°C° 0 mm 3 mps 755 mmHg 41%
04:00 +16°C° 0 mm 3 mps 755 mmHg 44%
05:00 +14°C° 0 mm 3 mps 755 mmHg 43%
06:00 +14°C° 0 mm 3 mps 755 mmHg 42%
07:00 +14°C° 0 mm 4 mps 756 mmHg 42%
08:00 +17°C° 0 mm 4 mps 756 mmHg 37%
09:00 +19°C° 0 mm 4 mps 756 mmHg 33%
10:00 +22°C° 0 mm 4 mps 756 mmHg 29%
11:00 +23°C° 0 mm 4 mps 756 mmHg 28%
12:00 +25°C° 0 mm 3 mps 755 mmHg 27%
13:00 +26°C° 0 mm 2 mps 755 mmHg 25%
14:00 +26°C° 0 mm 3 mps 754 mmHg 27%
15:00 +26°C° 0 mm 3 mps 754 mmHg 28%
16:00 +26°C° 0 mm 3 mps 754 mmHg 29%
17:00 +24°C° 0 mm 2 mps 754 mmHg 34%
18:00 +21°C° 0 mm 1 mps 754 mmHg 39%
19:00 +19°C° 0 mm 1 mps 754 mmHg 45%
20:00 +18°C° 0 mm 1 mps 755 mmHg 47%
21:00 +18°C° 0 mm 1 mps 755 mmHg 48%
22:00 +16°C° 0 mm 1 mps 755 mmHg 50%
23:00 +16°C° 0 mm 1 mps 755 mmHg 51%

Tomorrow, 11 August, Tuesday

Time Temperature Precipitation Wind Pressure Humidity
00:00 +16°C° 0 mm 2 mps 755 mmHg 52%
01:00 +15°C° 0 mm 2 mps 755 mmHg 53%
02:00 +15°C° 0 mm 2 mps 755 mmHg 55%
03:00 +15°C° 0 mm 2 mps 755 mmHg 58%
04:00 +15°C° 0 mm 1 mps 755 mmHg 60%
05:00 +15°C° 0 mm 2 mps 756 mmHg 62%
06:00 +15°C° 0 mm 2 mps 756 mmHg 64%
07:00 +15°C° 0 mm 2 mps 756 mmHg 66%
08:00 +17°C° 0 mm 2 mps 756 mmHg 58%
09:00 +20°C° 0 mm 2 mps 756 mmHg 51%
10:00 +24°C° 0 mm 2 mps 757 mmHg 44%
11:00 +24°C° 0 mm 2 mps 756 mmHg 43%
12:00 +25°C° 0 mm 2 mps 755 mmHg 43%
13:00 +25°C° 0 mm 3 mps 754 mmHg 42%
14:00 +25°C° 0 mm 3 mps 754 mmHg 45%
15:00 +24°C° 0 mm 3 mps 754 mmHg 47%
16:00 +24°C° 0 mm 3 mps 753 mmHg 50%
17:00 +21°C° 0 mm 3 mps 754 mmHg 57%
18:00 +20°C° 0 mm 2 mps 754 mmHg 64%
19:00 +18°C° 0 mm 2 mps 754 mmHg 70%
20:00 +18°C° 0 mm 2 mps 755 mmHg 73%
21:00 +18°C° 0 mm 2 mps 755 mmHg 76%
22:00 +18°C° 0 mm 3 mps 756 mmHg 79%
23:00 +18°C° 0 mm 2 mps 756 mmHg 81%

Day after tomorrow, 12 August, Wednesday

Time Temperature Precipitation Wind Pressure Humidity
00:00 +18°C° 0 mm 2 mps 756 mmHg 83%
01:00 +18°C° 0 mm 2 mps 755 mmHg 85%
02:00 +17°C° 0 mm 2 mps 755 mmHg 85%
03:00 +17°C° 0 mm 2 mps 755 mmHg 86%
04:00 +17°C° 0 mm 2 mps 755 mmHg 86%
05:00 +17°C° 0 mm 2 mps 755 mmHg 85%
06:00 +18°C° 0 mm 2 mps 756 mmHg 85%
07:00 +18°C° 0 mm 2 mps 756 mmHg 84%
08:00 +20°C° 0 mm 2 mps 757 mmHg 76%
09:00 +23°C° 0 mm 2 mps 757 mmHg 67%
10:00 +25°C° 0 mm 3 mps 757 mmHg 59%
11:00 +26°C° 0 mm 3 mps 757 mmHg 57%
12:00 +26°C° 0 mm 3 mps 756 mmHg 55%
13:00 +27°C° 0 mm 3 mps 755 mmHg 53%
14:00 +26°C° 0 mm 3 mps 754 mmHg 55%
15:00 +26°C° 0 mm 3 mps 754 mmHg 57%
16:00 +25°C° 0 mm 3 mps 753 mmHg 59%
17:00 +24°C° 0 mm 3 mps 754 mmHg 67%
18:00 +21°C° 0 mm 2 mps 754 mmHg 75%
19:00 +20°C° 0 mm 2 mps 754 mmHg 83%
20:00 +19°C° 0 mm 2 mps 755 mmHg 85%
21:00 +19°C° 0 mm 2 mps 755 mmHg 87%
22:00 +19°C° 0 mm 2 mps 756 mmHg 89%
23:00 +19°C° 0 mm 2 mps 756 mmHg 89%

13 August, Thursday

Time Temperature Precipitation Wind Pressure Humidity
00:00 +19°C° 0 mm 2 mps 756 mmHg 89%
01:00 +20°C° 0 mm 1 mps 756 mmHg 89%
02:00 +20°C° 0 mm 1 mps 755 mmHg 89%
03:00 +20°C° 0 mm 1 mps 755 mmHg 88%
04:00 +20°C° 0 mm 1 mps 755 mmHg 88%
05:00 +20°C° 0 mm 1 mps 756 mmHg 87%
06:00 +20°C° 0 mm 1 mps 756 mmHg 87%
07:00 +20°C° 0 mm 1 mps 756 mmHg 86%
08:00 +21°C° 0 mm 2 mps 756 mmHg 78%
09:00 +24°C° 0 mm 2 mps 757 mmHg 70%
10:00 +25°C° 0 mm 2 mps 757 mmHg 62%
11:00 +26°C° 0 mm 3 mps 756 mmHg 60%
12:00 +26°C° 0 mm 3 mps 755 mmHg 58%
13:00 +27°C° 0 mm 3 mps 755 mmHg 56%
14:00 +26°C° 0 mm 3 mps 754 mmHg 58%
15:00 +26°C° 0 mm 3 mps 754 mmHg 59%
16:00 +26°C° 0 mm 3 mps 754 mmHg 61%
17:00 +24°C° 0 mm 2 mps 754 mmHg 69%
18:00 +21°C° 0 mm 2 mps 754 mmHg 77%
19:00 +20°C° 0 mm 1 mps 755 mmHg 85%
20:00 +20°C° 0 mm 1 mps 755 mmHg 86%
21:00 +19°C° 0 mm 2 mps 756 mmHg 88%
22:00 +18°C° 0 mm 2 mps 756 mmHg 89%
23:00 +18°C° 0 mm 2 mps 756 mmHg 89%

14 August, Friday

Time Temperature Precipitation Wind Pressure Humidity
00:00 +18°C° 0 mm 2 mps 756 mmHg 90%
01:00 +18°C° 0 mm 2 mps 755 mmHg 90%
02:00 +18°C° 0 mm 2 mps 755 mmHg 90%
03:00 +18°C° 0 mm 2 mps 755 mmHg 91%
04:00 +18°C° 0 mm 2 mps 755 mmHg 91%
05:00 +19°C° 0 mm 2 mps 755 mmHg 89%
06:00 +19°C° 0 mm 2 mps 755 mmHg 87%
07:00 +20°C° 0 mm 2 mps 756 mmHg 86%
08:00 +21°C° 0 mm 2 mps 756 mmHg 77%
09:00 +24°C° 0 mm 3 mps 756 mmHg 68%
10:00 +26°C° 0 mm 3 mps 756 mmHg 58%
11:00 +26°C° 0 mm 3 mps 755 mmHg 57%
12:00 +27°C° 0 mm 3 mps 755 mmHg 55%
13:00 +27°C° 0 mm 4 mps 754 mmHg 54%
14:00 +26°C° 0 mm 3 mps 754 mmHg 57%
15:00 +26°C° 0 mm 3 mps 754 mmHg 60%
16:00 +25°C° 0 mm 3 mps 753 mmHg 63%
17:00 +24°C° 0 mm 3 mps 754 mmHg 71%
18:00 +21°C° 0 mm 2 mps 754 mmHg 79%
19:00 +20°C° 0 mm 2 mps 755 mmHg 86%
20:00 +20°C° 0 mm 2 mps 755 mmHg 88%
21:00 +20°C° 0 mm 2 mps 755 mmHg 89%
22:00 +19°C° 0 mm 2 mps 755 mmHg 90%
23:00 +19°C° 0 mm 2 mps 755 mmHg 90%

15 August, Saturday

Time Temperature Precipitation Wind Pressure Humidity
00:00 +20°C° 0 mm 2 mps 755 mmHg 90%
01:00 +20°C° 0 mm 3 mps 754 mmHg 90%
02:00 +20°C° 0 mm 2 mps 754 mmHg 90%
03:00 +20°C° 0 mm 2 mps 754 mmHg 90%
04:00 +20°C° 0 mm 2 mps 754 mmHg 90%
05:00 +20°C° 0 mm 2 mps 754 mmHg 89%
06:00 +20°C° 0 mm 2 mps 755 mmHg 89%
07:00 +20°C° 0 mm 2 mps 755 mmHg 89%
08:00 +21°C° 0 mm 2 mps 755 mmHg 79%
09:00 +24°C° 0 mm 2 mps 755 mmHg 69%
10:00 +26°C° 0 mm 2 mps 755 mmHg 59%
11:00 +27°C° 0 mm 2 mps 754 mmHg 57%
12:00 +27°C° 0 mm 2 mps 754 mmHg 55%
13:00 +28°C° 0 mm 3 mps 753 mmHg 53%
14:00 +27°C° 0 mm 3 mps 753 mmHg 55%
15:00 +27°C° 0 mm 3 mps 752 mmHg 58%
16:00 +26°C° 0 mm 3 mps 752 mmHg 60%
17:00 +25°C° 0 mm 3 mps 752 mmHg 67%
18:00 +23°C° 0 mm 2 mps 753 mmHg 74%
19:00 +22°C° 0 mm 1 mps 753 mmHg 81%
20:00 +22°C° 0 mm 1 mps 753 mmHg 82%
21:00 +22°C° 0 mm 1 mps 754 mmHg 82%
22:00 +21°C° 0 mm 2 mps 754 mmHg 83%
23:00 +21°C° 0 mm 1 mps 754 mmHg 84%
Show more